Погода Рудная Пристань

Погода Рудная Пристань : погода сейчас, прогноз погоды и архив. Всё, что Вы хотите узнать о погоде Рудная Пристань!

Хотите узнать прогноз погоды Рудная Пристань? Тогда Вам сюда: Погода Рудная Пристань

Поиск расширенной информации на нашем сайте:

Другие новости

Новости СМИ2

Главная страница сайта

Новости сайта

03.07.2017

Напоминаем, что на нашем специализированном сайте Метеоцентр.Азия вы можете получить высокодетализированные автоматические прогнозы погоды по пунктам России, СНГ и мира в авиационном формате (включающие направление и скорость ветра, видимость, явления погоды, количество и форму облачности, нижнюю и верхнюю границу облачности).

Рекомендуем: Нетбук в СВАО ремонт компьютеров компьютерная помощь одинцово VIP сервис

Погода Рудная Пристань - сегодня

Время (UTC), дата Ветер
(°,м/с) 
Видим.   Явления Облачность Т
(°С)
Тd
(°С)
f(%) Тe
(°С)
Pmin
(гПа)
dP
(гПа)
Po
(мм)
O2
(г/м3)
Тmin Tmax R s Состояние
почвы
09 20.09.17 250 (З) 20000 м    9/8 600 м кучево-дожд., верхняя 
[Cb cap|Cc]
+20.2 +9.7 51 +21  1003.6  2.4  750  280    +22.3       
12 20.09.17 240 (ЮЗ) 4{11}  20000 м    ясно 
+17.8 +9.7 59 +19  1005.5  1.9  751  282           
15 20.09.17 240 (ЮЗ) 20000 м    ясно 
+17.1 +9.7 62 +19  1007  1.5  752  284           
18 20.09.17 260 (З) 20000 м    ясно 
+13.1 +9.5 79 +14  1008.1  753  288           
21 20.09.17 310 (СЗ) 20000 м    ясно 
+11.9 +9.7 86 +13  1009.3  1.2  754  289  +9.7        сухая 
00 21.09.17 240 (ЮЗ) 20000 м    ясно 
+20.4 +10.6 53 +22  1010  0.8  755  281           
03 21.09.17 030 (СВ) 20000 м    3/3 600 м 
[Cu hum]
+19.5 +12.4 64 +25  1009.7  -0.3  754  281           
06 21.09.17 130 (ЮВ) 20000 м    3/3 600 м 
[Cu hum]
+20.3 +11.6 57 +24  1008.8  -0.9  754  280           
09 21.09.17 310 (СЗ) 20000 м    1/1 600 м 
[Sc diur, vesp]
+19.9 +7.5 45 +21  1009.5  0.7  754  282    +21.7       
12 21.09.17 290 (З) 20000 м    ясно 
+14.5 +8.4 67 +15  1011.5  1.8  756  288           
15 21.09.17 270 (З) 20000 м    3/3 600 м 
[Sc]
+11.1 +8.3 83 +11  1012.2  0.7  756  291           
18 21.09.17 310 (СЗ) 20000 м    ясно 
+13 +7.4 69 +13  1013  0.8  757  290           
21 21.09.17 230 (ЮЗ) 20000 м    3/3 600 м 
[Sc]
+8.3 +6.6 89 +8  1014.2  1.1  758  295  +8.3        сухая 
00 22.09.17 240 (ЮЗ) 20000 м    3/0 верхняя 
[Ci fib]
+17.6 +10 61 +19  1014.7  0.7  758  285  +7.7         
03 22.09.17 110 (В) 20000 м    3/3 600 м 
[Cu med, cong]
+18.8 +13.3 70 +25  1014.6  -0.1  758  283           
06 22.09.17 100 (В) 20000 м    1/0 верхняя 
[Ci sp]
+18.7 +12 65 +24  1014.4  -0.3  758  284           
12 22.09.17 тихо ()   20000 м    6/4 600 м кучево-дожд., верхняя 
[Cb cap|Ci sp]
+15.1 +14.9 99 +23  1014.8  0.8  758  286           
15 22.09.17 тихо ()   20000 м    9/9 600 м кучево-дожд. 
[Cb cap]
+15.5 +15.2 98 +24  1014.9  0.1  758  286           
18 22.09.17 270 (З) 20000 м    9/9 600 м кучево-дожд. 
[Cb cap]
+14.1 +13.9 99 +22  1014.6  -0.3  758  288           
21 22.09.17 270 (З) 20000 м    10/6 600 м кучево-дожд., верхняя 
[Cb cap|Ci sp]
+13.2 +13.2 100 +19  1013.9  -0.8  757  288  +12.7        сухая 
00 23.09.17 тихо ()   20000 м  {ливн. осадки}  10/6 600 м кучево-дожд., верхняя 
[Cb cap|Ci sp]
+15.5 +16.1 100 +26  1014.2  0.4  758  285           
03 23.09.17 040 (СВ) 10 км  слаб. ливневой дождь  10/8 600 м кучево-дожд., средняя 
[Cb cap|Ac und]
+16 +15.8 99 +27  1012.8  -1.3  757  285           
06 23.09.17 080 (В) 10 км  слаб. ливневой дождь  10/8 600 м кучево-дожд., средняя 
[Cb cap|Ac und]
+16.3 +16.1 99 +28  1011.6  -1.2  756  284           
09 23.09.17 тихо ()   20000 м  {ливн. осадки}  4/3 600 м кучево-дожд., верхняя 
[Cb cap|Ci sp]
+14.8 +14.8 100 +23  1012.2  0.6  756  286    +17.6     
12 23.09.17 300 (СЗ) 20000 м  {ливн. осадки, туман}  3/3 600 м верхняя 
[Sc diur, vesp|Ci sp]
+13.1 +13 99 +19  1013.7  1.4  757  289           
Время (UTC), дата Ветер
(°,м/с) 
Видим.   Явления Облачность Т
(°С)
Тd
(°С)
f(%) Тe
(°С)
Pmin
(гПа)
dP
(гПа)
Po
(мм)
O2
(г/м3)
Тmin Tmax R s Состояние
почвы

Для получения пояснительной информации подведите курсор к названию столбца.

ПОГОДА Рудная Пристань - архив

Всё, что Вы хотите узнать о погоде Рудная Пристань - удобно и подробно!

Выберите нужную дату (начиная с 1 января 2015* года) и нажмите кнопку "Найти".
Будут отображены архивные сводки погоды по пункту Рудная Пристань, начиная с указанной даты.


Отображать данные в формате CSV (для использования в таблицах Excel)


Внимание! Наш архив погоды предназначен исключительно для личного некоммерческого использования в познавательных целях. Если Вам необходимы официальные справки о состоянии погоды (для производственных, юридических, коммерческих и т.п. целей), обращайтесь в органы Росгидромета.

*Примечание: данная дата относится к архиву по метеостанциям СССР (Россия, СНГ, Балтия).
Архив по метеостанциям Зарубежной Европы и Азии (кроме Китая) хранится 10 дней, по другим регионам земного шара (Китай, Африка, Америка, Австралия, Океания) - 1 день.

Рудная Пристань - район местоположения метеостанции


Название, широта, долгота, высота метеостанции:
Рудная Пристань 44.4°ш. 135.9°д. 34 м над ур. моря [Российская Федерация]

Дополнительная информация

В oтличие oт бoльшинства пoгoдных сайтoв мы публикуем пoдрoбную метеoинфoрмацию в детальнoм прoфессиoнальнoм фoрмате.

Характеристики температуры и влажнoсти вoздуха измеряются на высoте 2 м в тени вдали oт зданий и деревьев.
Скoрoсть ветра измеряется на высoте 10 м (на урoвне рoста челoвека скoрoсть ветра ниже в 1.5-2 раза). Если метеoстанция нахoдится в гoрoде или в лесу, тo скoрoсть ветра занижена на 2-4 м/с пo сравнению с oткрытым местoм. Скoрoсть ветра над акватoриями крупных рек и oзёр, а также на вершинах хoлмoв на 2-5 м/с выше, чем в oбычных услoвиях.
Атмoсфернoе давление в разных тoчках местнoсти мoжет значительнo oтличаться oт давления на метеoстанции, в зависимoсти oт услoвий рельефа (при пoдъёме на 10 м давление пoнижается примернo на 1 мм рт.ст.).